When you browse on this site, cookies collect data to enhance your experience and personalize the content and advertising you see.
Visit our Privacy Policy to learn more. By continuing to use the site, you agree to this use of cookies and data.
EN

Hourly Weather Uige

Today, 4 July, Saturday

Time Temperature Precipitation Wind Pressure Humidity
00:00 +19°C° 0 mm 0 mps 691 mmHg 76%
01:00 +18°C° 0 mm 0 mps 691 mmHg 81%
02:00 +20°C° 0 mm 1 mps 691 mmHg 83%
03:00 +19°C° 0 mm 1 mps 690 mmHg 84%
04:00 +19°C° 0 mm 1 mps 690 mmHg 86%
05:00 +20°C° 0 mm 1 mps 691 mmHg 78%
06:00 +20°C° 0 mm 1 mps 691 mmHg 70%
07:00 +20°C° 0 mm 2 mps 692 mmHg 62%
08:00 +24°C° 0 mm 2 mps 692 mmHg 49%
09:00 +27°C° 0 mm 3 mps 693 mmHg 36%
10:00 +31°C° 0 mm 3 mps 693 mmHg 23%
11:00 +33°C° 0 mm 3 mps 693 mmHg 21%
12:00 +34°C° 0 mm 3 mps 692 mmHg 20%
13:00 +36°C° 0 mm 2 mps 692 mmHg 18%
14:00 +36°C° 0 mm 2 mps 691 mmHg 18%
15:00 +35°C° 0 mm 2 mps 690 mmHg 18%
16:00 +35°C° 0 mm 2 mps 689 mmHg 18%
17:00 +31°C° 0 mm 2 mps 689 mmHg 21%
18:00 +28°C° 0 mm 2 mps 690 mmHg 25%
19:00 +26°C° 0 mm 2 mps 690 mmHg 29%
20:00 +25°C° 0 mm 1 mps 690 mmHg 30%
21:00 +24°C° 0 mm 1 mps 690 mmHg 31%
22:00 +23°C° 0 mm 1 mps 691 mmHg 32%
23:00 +22°C° 0 mm 1 mps 691 mmHg 33%

Tomorrow, 5 July, Sunday

Time Temperature Precipitation Wind Pressure Humidity
00:00 +21°C° 0 mm 1 mps 691 mmHg 35%
01:00 +20°C° 0 mm 1 mps 690 mmHg 36%
02:00 +20°C° 0 mm 1 mps 690 mmHg 37%
03:00 +19°C° 0 mm 1 mps 690 mmHg 38%
04:00 +19°C° 0 mm 1 mps 690 mmHg 38%
05:00 +19°C° 0 mm 1 mps 690 mmHg 39%
06:00 +19°C° 0 mm 1 mps 691 mmHg 39%
07:00 +20°C° 0 mm 1 mps 691 mmHg 40%
08:00 +23°C° 0 mm 1 mps 692 mmHg 33%
09:00 +27°C° 0 mm 2 mps 692 mmHg 26%
10:00 +31°C° 0 mm 2 mps 693 mmHg 20%
11:00 +34°C° 0 mm 2 mps 693 mmHg 18%
12:00 +35°C° 0 mm 2 mps 692 mmHg 16%
13:00 +37°C° 0 mm 2 mps 691 mmHg 15%
14:00 +35°C° 0 mm 1 mps 691 mmHg 15%
15:00 +35°C° 0 mm 1 mps 690 mmHg 15%
16:00 +35°C° 0 mm 1 mps 689 mmHg 15%
17:00 +31°C° 0 mm 1 mps 689 mmHg 19%
18:00 +28°C° 0 mm 1 mps 689 mmHg 24%
19:00 +25°C° 0 mm 1 mps 689 mmHg 29%
20:00 +24°C° 0 mm 1 mps 690 mmHg 32%
21:00 +22°C° 0 mm 1 mps 690 mmHg 36%
22:00 +21°C° 0 mm 1 mps 691 mmHg 39%
23:00 +20°C° 0 mm 1 mps 691 mmHg 51%

Day after tomorrow, 6 July, Monday

Time Temperature Precipitation Wind Pressure Humidity
00:00 +19°C° 0 mm 1 mps 691 mmHg 62%
01:00 +18°C° 0 mm 1 mps 691 mmHg 74%
02:00 +18°C° 0 mm 1 mps 690 mmHg 80%
03:00 +15°C° 0 mm 0 mps 690 mmHg 85%
04:00 +15°C° 0 mm 0 mps 690 mmHg 90%
05:00 +15°C° 0 mm 0 mps 690 mmHg 89%
06:00 +16°C° 0 mm 1 mps 691 mmHg 88%
07:00 +16°C° 0 mm 1 mps 691 mmHg 88%
08:00 +21°C° 0 mm 1 mps 692 mmHg 71%
09:00 +25°C° 0 mm 1 mps 693 mmHg 55%
10:00 +29°C° 0 mm 1 mps 693 mmHg 38%
11:00 +31°C° 0 mm 1 mps 693 mmHg 33%
12:00 +32°C° 0 mm 1 mps 692 mmHg 27%
13:00 +35°C° 0 mm 2 mps 692 mmHg 22%
14:00 +35°C° 0 mm 2 mps 691 mmHg 21%
15:00 +35°C° 0 mm 2 mps 691 mmHg 21%
16:00 +34°C° 0 mm 2 mps 690 mmHg 21%
17:00 +30°C° 0 mm 2 mps 690 mmHg 26%
18:00 +27°C° 0 mm 1 mps 690 mmHg 32%
19:00 +24°C° 0 mm 1 mps 690 mmHg 38%
20:00 +23°C° 0 mm 1 mps 690 mmHg 46%
21:00 +21°C° 0 mm 1 mps 691 mmHg 53%
22:00 +18°C° 0 mm 0 mps 691 mmHg 61%
23:00 +17°C° 0 mm 0 mps 691 mmHg 67%

7 July, Tuesday

Time Temperature Precipitation Wind Pressure Humidity
00:00 +18°C° 0 mm 1 mps 691 mmHg 73%
01:00 +18°C° 0 mm 1 mps 691 mmHg 79%
02:00 +16°C° 0 mm 1 mps 690 mmHg 83%
03:00 +16°C° 0 mm 1 mps 690 mmHg 88%
04:00 +15°C° 0 mm 1 mps 690 mmHg 92%
05:00 +16°C° 0 mm 1 mps 690 mmHg 89%
06:00 +16°C° 0 mm 1 mps 690 mmHg 86%
07:00 +18°C° 0 mm 1 mps 691 mmHg 83%
08:00 +21°C° 0 mm 1 mps 691 mmHg 66%
09:00 +25°C° 0 mm 1 mps 692 mmHg 50%
10:00 +29°C° 0 mm 2 mps 693 mmHg 33%
11:00 +31°C° 0 mm 2 mps 692 mmHg 28%
12:00 +33°C° 0 mm 1 mps 692 mmHg 23%
13:00 +35°C° 0 mm 1 mps 691 mmHg 18%
14:00 +35°C° 0 mm 2 mps 691 mmHg 18%
15:00 +35°C° 0 mm 2 mps 690 mmHg 18%
16:00 +34°C° 0 mm 2 mps 689 mmHg 19%
17:00 +30°C° 0 mm 2 mps 689 mmHg 26%
18:00 +27°C° 0 mm 1 mps 689 mmHg 33%
19:00 +24°C° 0 mm 1 mps 689 mmHg 41%
20:00 +23°C° 0 mm 1 mps 690 mmHg 45%
21:00 +22°C° 0 mm 1 mps 690 mmHg 49%
22:00 +21°C° 0 mm 1 mps 690 mmHg 54%
23:00 +18°C° 0 mm 0 mps 690 mmHg 58%

8 July, Wednesday

Time Temperature Precipitation Wind Pressure Humidity
00:00 +17°C° 0 mm 0 mps 690 mmHg 63%
01:00 +16°C° 0 mm 0 mps 690 mmHg 67%
02:00 +16°C° 0 mm 0 mps 690 mmHg 71%
03:00 +15°C° 0 mm 0 mps 689 mmHg 74%
04:00 +15°C° 0 mm 0 mps 689 mmHg 77%
05:00 +15°C° 0 mm 0 mps 690 mmHg 77%
06:00 +16°C° 0 mm 1 mps 690 mmHg 76%
07:00 +18°C° 0 mm 1 mps 690 mmHg 75%
08:00 +22°C° 0 mm 1 mps 691 mmHg 61%
09:00 +26°C° 0 mm 1 mps 692 mmHg 48%
10:00 +30°C° 0 mm 1 mps 693 mmHg 34%
11:00 +32°C° 0 mm 1 mps 693 mmHg 29%
12:00 +34°C° 0 mm 1 mps 692 mmHg 24%
13:00 +36°C° 0 mm 1 mps 692 mmHg 19%
14:00 +35°C° 0 mm 1 mps 691 mmHg 20%
15:00 +36°C° 0 mm 2 mps 691 mmHg 20%
16:00 +35°C° 0 mm 2 mps 690 mmHg 21%
17:00 +31°C° 0 mm 1 mps 690 mmHg 31%
18:00 +27°C° 0 mm 1 mps 690 mmHg 40%
19:00 +24°C° 0 mm 1 mps 690 mmHg 50%
20:00 +23°C° 0 mm 1 mps 690 mmHg 53%
21:00 +22°C° 0 mm 1 mps 690 mmHg 56%
22:00 +21°C° 0 mm 1 mps 691 mmHg 59%
23:00 +20°C° 0 mm 1 mps 691 mmHg 64%

9 July, Thursday

Time Temperature Precipitation Wind Pressure Humidity
00:00 +18°C° 0 mm 0 mps 691 mmHg 69%
01:00 +17°C° 0 mm 0 mps 691 mmHg 74%
02:00 +16°C° 0 mm 0 mps 690 mmHg 78%
03:00 +16°C° 0 mm 0 mps 690 mmHg 82%
04:00 +16°C° 0 mm 1 mps 690 mmHg 85%
05:00 +18°C° 0 mm 1 mps 690 mmHg 84%
06:00 +16°C° 0 mm 0 mps 691 mmHg 82%
07:00 +17°C° 0 mm 0 mps 691 mmHg 80%
08:00 +22°C° 0 mm 1 mps 692 mmHg 66%
09:00 +26°C° 0 mm 1 mps 693 mmHg 51%
10:00 +30°C° 0 mm 1 mps 693 mmHg 37%
11:00 +32°C° 0 mm 1 mps 693 mmHg 32%
12:00 +35°C° 0 mm 1 mps 692 mmHg 27%
13:00 +37°C° 0 mm 1 mps 692 mmHg 22%
14:00 +36°C° 0 mm 1 mps 691 mmHg 22%
15:00 +36°C° 0 mm 2 mps 691 mmHg 23%
16:00 +35°C° 0 mm 2 mps 690 mmHg 23%
17:00 +31°C° 0 mm 2 mps 690 mmHg 30%
18:00 +28°C° 0 mm 1 mps 690 mmHg 37%
19:00 +25°C° 0 mm 1 mps 689 mmHg 44%
20:00 +24°C° 0 mm 1 mps 690 mmHg 47%
21:00 +23°C° 0 mm 1 mps 690 mmHg 51%
22:00 +22°C° 0 mm 1 mps 691 mmHg 55%
23:00 +21°C° 0 mm 1 mps 691 mmHg 61%
Show more